Regional Weather Roundup
Issued by NWS Mt. Holly, NJ

Home | Current Version | Previous Version | Text Only | Print | Product List | Glossary On
Versions: 1 2 3 4 5 6 7 8 9 10 11 12 13 14 15 16 17 18 19 20 21 22 23 24 25 26 27 28 29 30 31 32 33 34 35 36 37 38 39 40 41 42 43 44 45 46 47 48 49 50
000
ASUS41 KPHI 020812
RWRPHI

REGIONAL WEATHER ROUNDUP
NATIONAL WEATHER SERVICE MOUNT HOLLY NJ
400 AM EDT THU JUL 02 2015

NOTE:  "FAIR" INDICATES FEW OR NO CLOUDS BELOW 12,000 FEET WITH NO
SIGNIFICANT WEATHER AND/OR OBSTRUCTIONS TO VISIBILITY.

 * = STATION DOES NOT REPORT PRECIPITATION (E.G. RAIN, SNOW, ETC.)
        OR FOG.

NJZ015>026-020900-
SOUTHERN NEW JERSEY

CITY           SKY/WX    TMP DP  RH WIND       PRES   REMARKS
POMONA         PTCLDY    69  68  96 CALM      29.88F FOG
RIO GRANDE*    PTCLDY    72  68  88 NW3       29.89S
MILLVILLE      PTCLDY    67  66  97 CALM      29.88S FOG
WRIGHTSTOWN    CLEAR     62  62  98 CALM      29.86S
MOUNT HOLLY    CLEAR     63  61  93 CALM      29.88S FOG
TRENTON        CLEAR     64  59  83 NW6       29.87F

$$
NJZ001>014-020900-
NORTHERN NEW JERSEY

CITY           SKY/WX    TMP DP  RH WIND       PRES   REMARKS
SUSSEX         FOG       58  56  93 CALM      29.89S VSB 1/4
ANDOVER*         N/A     59  58  96 CALM      29.90S
MORRISTOWN     CLEAR     61  59  94 CALM      29.88  FOG
NEWARK         PTCLDY    69  60  73 CALM      29.87S
TETERBORO      CLEAR     66  59  78 CALM      29.86S
CALDWELL       CLEAR     63  59  87 CALM      29.88S
SOMERVILLE     CLEAR     61  58  90 CALM      29.86F FOG
ALLAIRE*       CLEAR     64  57  77 CALM      29.87F
TOMS RIVER*    CLEAR     63  59  88 CALM      29.88S

$$
PAZ043-044-047-054-055-060>062-066>071-020900-
EASTERN PENNSYLVANIA

CITY           SKY/WX    TMP DP  RH WIND       PRES   REMARKS
PHILADELPHIA   CLEAR     71  60  68 CALM      29.88F
NORTH PHILA    CLEAR     67  58  72 CALM      29.89S
DOYLESTOWN     CLEAR     60  59  96 CALM      29.88S
QUAKERTOWN*    CLEAR     59  57  94 CALM      29.90S
POTTSTOWN      CLEAR     60  59  96 CALM      29.90S
LANCASTER      PTCLDY    61  58  90 NW3       29.89S
READING        PTCLDY    63  59  87 CALM      29.88S
ALLENTOWN      CLEAR     61  58  90 CALM      29.89S FOG
MOUNT POCONO   CLEAR     54  52  93 CALM      29.93F
WILKES BARRE   CLEAR     59  55  87 CALM      29.91F

$$
DEZALL-MDZ008-012-015-019-020-020900-
DELAWARE AND EASTERN MARYLAND

CITY           SKY/WX    TMP DP  RH WIND       PRES   REMARKS
WILMINGTON     CLEAR     65  62  90 N3        29.89S
DOVER          MOCLDY    68  68 100 E3        29.86S
GEORGETOWN     CLEAR     68  66  93 SW3       29.88F
EASTON         MOCLDY    70  70 100 CALM      29.92S FOG
PATUXENT       PTCLDY    73  69  87 SE5       29.87F
OCEAN CITY     CLEAR     68  66  93 CALM      29.88  FOG
WALLOPS ISLAND CLEAR     72  71  97 CALM      29.88F
CAMBRIDGE      PTCLDY    70  64  83 CALM      29.87F
SALISBURY      CLEAR     68  67  96 CALM      29.88F

$$
PAZ001-021-NYZ056-072-MDZ011-DCZ001-020900-
OTHER NEARBY LOCATIONS

CITY           SKY/WX    TMP DP  RH WIND       PRES   REMARKS
HARRISBURG     PTCLDY    65  61  87 CALM      29.89S
WILLIAMSPORT   PTCLDY    59  57  93 CALM      29.90F
BINGHAMTON     PTCLDY    59  56  89 CALM      29.92F
NEW YORK CITY  CLEAR     72  57  59 CALM      29.90S
BALTIMORE      MOCLDY    66  64  93 CALM      29.88F
WASHINGTON DC  PTCLDY    74  70  87 CALM      29.88F

$$


USA.gov is the U.S. government's official web portal to all federal, state and local government web resources and services.